Location: Newark
(7.0858°N, 171.3717°E)
Time: 18:54:46
(UTC+00:00)

Envisat - Visible Passes

Search period start: 06 December 2021 00:00
Search period end: 16 December 2021 00:00
Orbit: 764 x 766 km, 98.2° (Epoch: 05 December)

Date Brightness Start Highest point End Pass type
(mag) Time Alt. Az. Time Alt. Az. Time Alt. Az.
06 Dec 5.9 16:14:27 10° ENE 16:17:15 15° E 16:20:03 10° SE visible
06 Dec 3.7 17:51:34 10° NNW 17:56:02 32° WNW 18:00:30 10° SW visible
07 Dec 2.9 17:14:13 10° NNE 17:19:18 88° E 17:24:23 10° SSW visible
08 Dec 4.8 16:38:05 10° NE 16:42:30 31° E 16:46:56 10° SSE visible
09 Dec 6.2 16:04:56 10° E 16:05:42 10° E 16:06:29 10° ESE visible
09 Dec 3.3 17:39:44 10° N 17:44:31 44° WNW 17:49:19 10° SSW visible
10 Dec 3.4 17:02:45 10° NNE 17:07:46 64° ESE 17:12:47 10° S visible
11 Dec 5.3 16:27:03 10° NE 16:30:58 22° E 16:34:53 10° SSE visible
11 Dec 4.1 18:05:55 10° NNW 18:09:43 22° WNW 18:13:31 10° SW visible
12 Dec 2.9 17:28:00 10° N 17:33:00 61° WNW 17:38:00 10° SSW visible
13 Dec 4.0 16:51:23 10° NNE 16:56:13 46° ESE 17:01:05 10° S visible
14 Dec 5.7 16:16:19 10° ENE 16:19:25 16° E 16:22:33 10° SE visible
14 Dec 3.8 17:53:52 10° NNW 17:58:12 29° WNW 18:02:33 10° SW visible
15 Dec 2.9 17:16:24 10° N 17:21:28 84° W 17:26:33 10° SSW visible
